User: anonymous   Login
Location: Unspecified
(0.0000°N, 0.0000°E)
Time: 13:42:03
(UTC+00:00)
Language:

DELFI-N3XT - Orbit

View from above orbital plane
View from above orbital plane
View from above satellite
View from above satellite

Ground track
Ground track

The orbit data is extracted from the following two-line orbital elements,

1 39420U 13066E   17114.89687304 +.00000391 +00000-0 +76945-4 0  9991
2 39420 097.6551 123.6422 0137880 191.9572 167.8347 14.61821936182585
Epoch (UTC): 24 April 2017 21:31:29
Eccentricity: 0.0137880
inclination: 97.6551°
perigee height: 590 km
apogee height: 785 km
right ascension of ascending node: 123.6422°
argument of perigee: 191.9572°
revolutions per day: 14.61821936
mean anomaly at epoch: 167.8347°
orbit number at epoch: 18258

The dashed part of the orbit path shows where the satellite is in the earth's shadow,  

DLR